ARIANE 2 DEB, 33568

Orbit data source: Space-Track

ARIANE 2 DEB, 33568 is space debris in HEO originally from a launch on Fri, 27 Jan 1989 UTC launched from the French Guiana (FRGUI). Debris objects in space refer to the collection of defunct objects orbiting the Earth. Examples of debris include non-operational satellites, rocket bodies, and fragments generated from explosions, collisions, or faulty payload assembly.

Loading next visibility...
Identifier
33568, 1989-006BL
Orbit
HEO
Country
Flag of FRFR
Related business
Manufacturer
EADS/LV
Mission
Spacecraft
Bus & Motor
Unknown
Mass
Unknown
Launch date (UTC)
1989-01-27 (37 years ago)
Launch vehicle
Unknown
Launch site
French Guiana (FRGUI)
Object type
Payload
Rocket body
Debris
Shape & HBR
Unknown shape, 0.4 m
Radar Cross Section
Medium (>0.1 m² and <1 m²)

Expand to show TLE details & history
Last TLE update: 4 months ago

TLE from 4 months ago
0 ARIANE 2 DEB
1 33568U 89006BL  26062.90932569  .00000009  00000-0  66978-3 0  9995
2 33568   8.5184  11.0885 7185921 204.2629  90.0267  2.30212773113808
Epoch: 2026-03-03T21:49Z
TLE epoch observation values (Epoch: 2026-03-03T21:49:25.739Z)
Latitude
0.00001°
Longitude
-117.96579°
Altitude
27,643.567 km
Speed
2.642 km/s
True Right ascension
00h 44m 17s
True Declination
0° 00' 00"
Sunlit
Object was in daylight at epoch
Visualization orbit readout
Latitude
Unknown
Longitude
Unknown
Altitude
Unknown
Speed
Unknown
Apparent Right ascension
Unknown
Apparent Declination
Unknown
Sunlit
N/A
Visualization observer readout
Local Sidereal Time
11:33:40
Azimuth
Unknown
Elevation
Unknown
Doppler factor
Unknown
Orbital elements
Apogee altitude
35,268.731 km
Perigee altitude
441.258 km
Semi-major axis
24,233.131 km
Eccentricity
0.71859
Inclination
8.5184°
RAAN
11.0885°
Arg. of periapsis
204.2629°
True anomaly
155.77161°
Mean anomaly
90.0267°
Eccentric anomaly
124.11414°
Mean motion
0.57535 °/min
Orbital period
625.71 mins
BSTAR
0.00066978
Loading maneuver chart data...
Computing Atmospheric mass density...
Loading historical data...
Loading historical data...
Loading historical data...
Loading historical data...
Loading historical data...
Loading historical data...
Loading historical data...

Documentation

Showing up to 5 results
|